www.pogodaiklimat.ru

Погода и климат >> Архив погоды >> Литва >> Vilnius


АРХИВ ПОГОДЫ в Vilnius

Время (UTC), дата Ветер
(напр.,м/с)
 
Видим.   Явления Облачность Т
(С)
Тd
(С)
f
(%)
Тe
(С)
Тes
(С)
Комфортность P
(гПа)
Po
(гПа)
Тmin
(С)
Tmax
(С)
R
(мм)
R24
(мм)
S
(см)
09 18.02 СЗ 2-5
{8}
4900 м в посл. час снег 9/9 360 м
[St]
-3.7 -5.9 85 -8 -8 по сезону 1022.9 1002.9
12 18.02 СЗ 5-7
{7}
6000 м слабый снег 10/0 600 м
[As op]
-3.3 -6.1 81 -10 -10 прохладно 1023.9 1003.9
15 18.02 СЗ 3-7
{8}
20 км {снег} 10/10 630 м
[Sc]
-3.9 -7.6 75 -9 -9 по сезону 1025.0 1004.9
18 18.02 З 2-4
{8}
2700 м слабый снег 10/0
[As op]
-5.1 -7.2 85 -9 -9 по сезону 1025.4 1005.2 -3.0 0.0
21 18.02 ЮЗ 1-4
{4}
1100 м снег 10/0 330 м
[As op]
-4.4 -5.7 91 -7 -7 по сезону 1024.1 1004.0
00 19.02 СЗ 4-6
{7}
12 км слабый снег 10/0 240 м
[As op]
-2.4 -3.6 91 -8 -8 по сезону 1023.5 1003.6
03 19.02 З 4-7
{7}
12 км в посл. час снег 10/10 180 м
[St]
-2.3 -3.5 91 -8 -8 по сезону 1023.1 1003.2
06 19.02 СЗ 3-4
{7}
3900 м слабый снег 10/0 180 м
[As op]
-2.5 -3.4 94 -8 -8 по сезону 1023.3 1003.4 -5.1 3 19
09 19.02 В 2-3
{4}
17 км в посл. час снег 10/10 240 м
[St]
-3.7 -5.9 85 -8 -8 по сезону 1024.0 1004.0
12 19.02 штиль 0-2
{3}
14 км слабый снег 10/0 300 м
[As op]
-1.6 -4.3 82 -3 -2 по сезону 1024.1 1004.2
15 19.02 З 1-3
{4}
9000 м слабый снег 10/0 500 м
[As op]
-0.3 -3.0 82 -2 -2 тепло 1023.9 1004.1
18 19.02 З 1-3
{3}
6000 м слабый снег 10/0 330 м
[As op]
-1.2 -2.9 88 -3 -3 по сезону 1024.4 1004.5 -0.3 0.5
21 19.02 СЗ 2-4
{5}
10 км в посл. час снег 10/10 240 м
[St]
-1.2 -2.9 88 -5 -5 по сезону 1024.4 1004.5
00 20.02 штиль 0-2
{4}
5000 м слабый снег 10/0 480 м
[As op]
-2.2 -3.4 91 -3 -3 тепло 1024.9 1004.9
03 20.02 штиль 0-2
{2}
7000 м дымка {снег} 10/10 480 м
[St]
-2.7 -3.7 93 -4 -4 тепло 1024.9 1004.9
06 20.02 штиль 0-1
{3}
3700 м в посл. час снег 10/10 660 м
[Sc]
-4.1 -5.0 93 -5 -5 тепло 1025.1 1005.0 -4.2 0.0 20
09 20.02 ЮВ 1-2
{3}
7000 м дымка {снег} 9/9 700 м
[Sc]
-2.6 -4.5 87 -5 -4 по сезону 1025.2 1005.2
12 20.02 ЮВ 2-3
{4}
14 км слабый снег 10/0 600 м
[As op]
-0.6 -3.0 84 -4 -4 по сезону 1024.0 1004.2
15 20.02 СЗ 2-4
{5}
4200 м слабый снег 10/0 570 м
[As op]
-2.4 -4.0 89 -6 -6 по сезону 1024.2 1004.2
18 20.02 С 1-3
{4}
6000 м дымка {снег} 10/10 150 м
[St]
-3.8 -5.0 91 -6 -6 по сезону 1024.8 1004.7 -0.3 1
21 20.02 СЗ 2-4
{5}
8000 м дымка 10/10 180 м
[St]
-5.3 -6.7 90 -10 -10 по сезону 1025.2 1005.0
00 21.02 СЗ 2-4
{4}
9000 м дымка 10/10 500 м
[St]
-6.4 -8.0 88 -11 -11 по сезону 1025.3 1005.0
03 21.02 штиль 0-2
{5}
20 км 10/10 180 м
[St]
-6.7 -8.7 86 -8 -8 по сезону 1024.7 1004.4
06 21.02 СЗ 3-4
{4}
8000 м слабый снег 10/0 180 м
[As op]
-7.5 -8.8 90 -13 -13 по сезону 1024.5 1004.2 -7.6 0.0 21
09 21.02 СЗ 3-5
{5}
7000 м слабый снег 10/0 240 м
[As op]
-7.2 -9.3 85 -13 -12 прохладно 1025.0 1004.7
12 21.02 СЗ 3-5
{6}
7000 м слабый снег 10/0 360 м
[As op]
-6.2 -9.3 79 -12 -11 холодно 1024.9 1004.7
15 21.02 СЗ 1-3
{5}
17 км слабый снег 10/8 1110 м
[Frnb As op]
-6.6 -10.3 75 -9 -9 по сезону 1025.0 1004.7
18 21.02 С 1-3
{4}
4500 м слабый снег 10/0 1200 м
[As op]
-7.8 -9.6 87 -10 -10 по сезону 1026.0 1005.6 -6.0 0.0
21 21.02 С 2-3
{5}
4700 м в посл. час снег 9/9 1000 м
[Sc]
-10.9 -12.2 90 -15 -15 холодно 1027.3 1006.6
00 22.02 С 1-3
{4}
6000 м дымка {снег} ясно -12.7 -14.0 90 -15 -15 холодно 1028.2 1007.4
03 22.02 СВ 1-3
{5}
13 км ясно -13.8 -15.8 85 -16 -16 холодно 1028.7 1007.8
06 22.02 штиль 0-3
{4}
14 км в посл. час снег ясно -14.9 -16.9 85 -15 -15 прохладно 1029.5 1008.5 -15.0 0.0 21
09 22.02 СВ 2-4
{4}
14 км ясно -11.1 -13.9 80 -16 -12 холодно 1030.0 1009.3
12 22.02 СВ 3-4
{8}
20 км в посл. час снег 8/8 500 м
[St]
-7.9 -12.5 69 -14 -13 очень
холодно
1029.7 1009.2
15 22.02 СВ 2-5
{6}
18 км слабый снег 9/0 540 м
[As op]
-7.9 -12.0 72 -12 -12 прохладно 1029.1 1008.6
18 22.02 СВ 1-3
{5}
14 км {снег} 4/4 570 м
[St]
-11.2 -14.0 80 -13 -13 прохладно 1029.9 1009.2 -6.6 0.0
21 22.02 СВ 1-3
{3}
12 км {снег} 3/3 570 м
[St]
-13.5 -15.5 85 -16 -16 холодно 1030.0 1009.1
00 23.02 штиль 0
{3}
7000 м слабый снег 10/0 660 м
[As op]
-14.8 -16.8 85 -15 -15 холодно 1029.9 1008.9
03 23.02 штиль 0-1
{2}
10 км в посл. час снег 3/3 300 м
[St]
-16.5 -18.4 85 -17 -17 холодно 1029.1 1007.9
06 23.02 штиль 0-1
{3}
9000 м дымка {снег} 8/0
[Ac trans Cs]
-17.7 -19.6 85 -18 -18 холодно 1029.1 1007.9 -18.1 0.0 21
09 23.02 СВ 1-2
{3}
8000 м дымка 1/0
[Cs]
-12.2 -14.9 80 -14 -10 холодно 1028.6 1007.9
12 23.02 В 2-4
{4}
20 км ясно -7.4 -13.3 63 -12 -8 холодно 1027.2 1006.8
15 23.02 штиль 0-2
{4}
20 км ясно -6.7 -14.5 54 -7 -7 по сезону 1025.9 1005.6
18 23.02 штиль 0-2
{4}
7000 м дымка ясно -12.3 -15.8 75 -12 -12 прохладно 1025.9 1005.1 -5.5
21 23.02 штиль 0
{2}
4000 м дымка ясно -15.2 -17.2 85 -15 -15 холодно 1026.1 1005.1
00 24.02 СВ 2-3
{4}
11 км 5/0
[Ac trans]
-15.1 -17.0 85 -20 -20 очень
холодно
1026.4 1005.4
03 24.02 С 2-4
{4}
20 км 9/0
[Ac As]
-17.2 -19.8 80 -23 -23 очень
холодно
1027.4 1006.2
06 24.02 СВ 3-5
{6}
19 км слабый снег 8/0 660 м
[As op]
-16.2 -18.8 80 -23 -23 очень
холодно
1029.1 1008.0 -17.3 0.0 20
09 24.02 СВ 5-10
{10}
17 км {снег} 3/1 600 м
[Sc Cc]
-12.0 -16.4 70 -20 -18 очень
холодно
1029.8 1009.0
12 24.02 С 4-8
{10}
20 км в посл. час снег 9/9 720 м
[Cu Sc]
-9.6 -16.0 60 -16 -16 очень
холодно
1029.8 1009.2
15 24.02 С 4-8
{9}
20 км {снег} 4/4 630 м
[Sc]
-10.0 -16.3 60 -17 -17 очень
холодно
1030.2 1009.5
18 24.02 С 1-4
{8}
20 км {снег} 6/6 750 м
[Sc]
-12.8 -16.3 75 -15 -15 холодно 1031.4 1010.5 -9.3 0.0
21 24.02 СВ 3-5
{5}
19 км слабый снег 10/0 660 м
[As op]
-12.3 -15.8 75 -18 -18 очень
холодно
1031.7 1010.9
00 25.02 С 1-3
{5}
15 км {снег} ясно -15.8 -17.7 85 -18 -18 очень
холодно
1032.4 1011.2
03 25.02 С 1-3
{3}
15 км ясно -18.5 -20.4 85 -21 -21 очень
холодно
1032.2 1010.8
06 25.02 С 1-3
{3}
6000 м слабый снег 10/0 900 м
[As op]
-18.0 -20.6 80 -21 -21 очень
холодно
1032.4 1011.1 -19.1 0.0 20

 

Местоположение метеостанции Vilnius (Литва): широта 54.63 долгота 25.28 высота над уровнем моря 156 м.

В архиве по умолчанию представлена погода в Vilnius за последнюю неделю. Архивные данные за месяц целиком и за предыдущие месяцы, начиная с января 2011 года, Вы можете получить, выбрав интересующий диапазон дат из раскрывающегося списка и нажав кнопку "Ввод!".

Внимание! Время в таблицах - всемирное. Для получения местного времени необходимо прибавить поправку, которая в Vilnius равна 2 ч.

Смотрите также архив погоды в соседних городах и на ближайших метеорологических станциях:

Погода в Ошмянах (Гродненская область, Беларусь) (47 км)
Погода в Varena (Литва) (63 км)
Погода в Ukmerge (Литва) (78 км)
Погода в Лынтупах (Витебская область, Беларусь) (81 км)
Погода в ?ven?ionys (Литва) (81 км)
Погода в Лиде (Гродненская область, Беларусь) (81 км)
Погода в Alytus (Литва) (82 км)
Погода в Kauno (Литва) (97 км)
Погода в Нарочи (Минская область, Беларусь) (97 км)
Погода в Воложине (Минская область, Беларусь) (100 км)

Пояснения к столбцам:

Ветер - указаны скорость ветра в м/с - средняя за 10 мин, порывы в срок и между сроками (в фигурных скобках) и направление, откуда дует ветер: С - северный, СВ - северо-восточный, В - восточный, ЮВ - юго-восточный, Ю - южный, ЮЗ - юго-западный, З - западный, СЗ - северо-западный.
Видимость - горизонтальная дальность видимости в метрах или километрах. При видимости от 1 до 10 км при отсутствии осадков обычно наблюдается дымка, при ухудшении видимости до 1 км и менее - туман. В сухую погоду видимость может ухудшаться дымом, пылью или мглою.
Явления - указаны атмосферные явления, наблюдавшиеся в срок или в последний час перед сроком; фигурными скобками обозначены явления, наблюдавшиеся между сроками (за 1-3 часа до срока); квадратными скобками обозначены град или гололедные отложения с указанием их диаметра в мм.
Облачность - указаны через наклонную черту общая и нижняя облачность в баллах и высота нижней границы облаков в метрах; квадратными скобками обозначены формы облаков: Ci - перистые, Cs - перисто-слоистые, Cc - перисто-кучевые, Ac - высококучевые, As - высокослоистые, Sc - слоисто-кучевые, Ns - слоисто-дождевые, Cu - кучевые, Cb - кучево-дождевые. Подробнее классификацию облаков см. в Атласе облаков (PDF).
T - Температура воздуха - температура, измеренная на высоте 2 м над землей.
Td - Температура точки росы - температура, при понижении до которой содержащийся в воздухе водяной пар достигнет насыщения.
f - Относительная влажность воздуха - влажноcть воздуха, измеренная на высоте 2 м над землей.
Te - Эффективная температура - температура, которую ощущает одетый по сезону человек в тени. Характеристика душности погоды. При расчете учитывается влияние влажности воздуха и скорости ветра на теплоощущения человека.
Tes - Эффективная температура на солнце - температура, которую ощущает человек, с поправкой на солнечный нагрев. Характеристика знойности погоды. Зависит от высоты солнца над горизонтом, облачности и скорости ветра. Ночью, в пасмурную погоду, а также при ветре 12 м/с и более поправка равна нулю.
P - Атмосферное давление - приведенное к уровню моря атмосферное давление.
Po - Атмосферное давление - измеренное на уровне метеостанции атмосферное давление.
Tmin - Минимальная температура - минимум температуры воздуха на высоте 2 м над землей.
Tmax - Максимальная температура - максимум температуры воздуха на высоте 2 м над землей.
R - Количество осадков - Количество выпавших осадков за период времени, мм. При наведении курсора мыши на число - период времени, за который выпало указанное количество осадков.
R24 - Количество осадков - Количество выпавших осадков за 24 часа, мм.
S - Снежный покров - Высота снежного покрова, см. При наведении курсора мыши на число - состояние снежного покрова и степень покрытия местности в баллах.